• In Uzbekistan
  • List of Countries
  • For 7 days
  • Water Temperature
  • Satellite Maps
  • Weather Map
  • Weather Widgets
  • user-avatar
    Login

    Hourly Weather Chardzhou

    Today, 18 October, Thursday

    Time Temperature Precipitation Wind Pressure Humidity
    00:00 +5°C° 0 mm 3 mps 753 mmHg 31%
    01:00 +5°C° 0 mm 3 mps 753 mmHg 31%
    02:00 +5°C° 0 mm 2 mps 752 mmHg 32%
    03:00 +5°C° 0 mm 2 mps 752 mmHg 34%
    04:00 +4°C° 0 mm 2 mps 752 mmHg 36%
    05:00 +5°C° 0 mm 2 mps 752 mmHg 35%
    06:00 +6°C° 0 mm 1 mps 752 mmHg 33%
    07:00 +7°C° 0 mm 1 mps 752 mmHg 32%
    08:00 +9°C° 0 mm 1 mps 752 mmHg 28%
    09:00 +11°C° 0 mm 1 mps 752 mmHg 25%
    10:00 +12°C° 0 mm 0 mps 752 mmHg 22%
    11:00 +13°C° 0 mm 0 mps 752 mmHg 20%
    12:00 +14°C° 0 mm 1 mps 751 mmHg 18%
    13:00 +15°C° 0 mm 1 mps 751 mmHg 17%
    14:00 +15°C° 0 mm 1 mps 751 mmHg 16%
    15:00 +16°C° 0 mm 1 mps 750 mmHg 16%
    16:00 +16°C° 0 mm 2 mps 750 mmHg 17%
    17:00 +14°C° 0 mm 2 mps 750 mmHg 19%
    18:00 +12°C° 0 mm 2 mps 750 mmHg 21%
    19:00 +10°C° 0 mm 2 mps 750 mmHg 23%
    20:00 +9°C° 0 mm 2 mps 750 mmHg 24%
    21:00 +9°C° 0 mm 2 mps 750 mmHg 25%
    22:00 +8°C° 0 mm 2 mps 750 mmHg 26%
    23:00 +9°C° 0 mm 1 mps 750 mmHg 27%

    Tomorrow, 19 October, Friday

    Time Temperature Precipitation Wind Pressure Humidity
    00:00 +8°C° 0 mm 1 mps 750 mmHg 28%
    01:00 +7°C° 0 mm 1 mps 750 mmHg 29%
    02:00 +7°C° 0 mm 1 mps 750 mmHg 29%
    03:00 +7°C° 0 mm 1 mps 751 mmHg 30%
    04:00 +6°C° 0 mm 1 mps 751 mmHg 31%
    05:00 +7°C° 0 mm 1 mps 751 mmHg 29%
    06:00 +8°C° 0 mm 1 mps 751 mmHg 27%
    07:00 +9°C° 0 mm 1 mps 752 mmHg 25%
    08:00 +11°C° 0 mm 1 mps 752 mmHg 22%
    09:00 +13°C° 0 mm 1 mps 752 mmHg 20%
    10:00 +15°C° 0 mm 1 mps 752 mmHg 17%
    11:00 +16°C° 0 mm 1 mps 752 mmHg 16%
    12:00 +18°C° 0 mm 1 mps 752 mmHg 15%
    13:00 +19°C° 0 mm 1 mps 752 mmHg 15%
    14:00 +19°C° 0 mm 1 mps 751 mmHg 15%
    15:00 +20°C° 0 mm 1 mps 751 mmHg 15%
    16:00 +19°C° 0 mm 2 mps 751 mmHg 14%
    17:00 +17°C° 0 mm 2 mps 751 mmHg 17%
    18:00 +14°C° 0 mm 3 mps 751 mmHg 19%
    19:00 +13°C° 0 mm 3 mps 751 mmHg 21%
    20:00 +12°C° 0 mm 3 mps 751 mmHg 22%
    21:00 +12°C° 0 mm 3 mps 751 mmHg 23%
    22:00 +11°C° 0 mm 3 mps 751 mmHg 25%
    23:00 +11°C° 0 mm 3 mps 751 mmHg 26%

    Day after tomorrow, 20 October, Saturday

    Time Temperature Precipitation Wind Pressure Humidity
    00:00 +10°C° 0 mm 3 mps 751 mmHg 27%
    01:00 +10°C° 0 mm 3 mps 751 mmHg 28%
    02:00 +9°C° 0 mm 3 mps 751 mmHg 30%
    03:00 +9°C° 0 mm 2 mps 750 mmHg 31%
    04:00 +9°C° 0 mm 2 mps 750 mmHg 33%
    05:00 +9°C° 0 mm 2 mps 751 mmHg 33%
    06:00 +10°C° 0 mm 2 mps 751 mmHg 32%
    07:00 +10°C° 0 mm 2 mps 751 mmHg 32%
    08:00 +13°C° 0 mm 2 mps 751 mmHg 28%
    09:00 +16°C° 0 mm 2 mps 751 mmHg 24%
    10:00 +18°C° 0 mm 2 mps 751 mmHg 20%
    11:00 +19°C° 0 mm 2 mps 751 mmHg 19%
    12:00 +20°C° 0 mm 2 mps 750 mmHg 17%
    13:00 +21°C° 0 mm 2 mps 750 mmHg 15%
    14:00 +21°C° 0 mm 2 mps 750 mmHg 15%
    15:00 +21°C° 0 mm 2 mps 749 mmHg 14%
    16:00 +21°C° 0 mm 2 mps 749 mmHg 14%
    17:00 +19°C° 0 mm 2 mps 749 mmHg 16%
    18:00 +17°C° 0 mm 2 mps 749 mmHg 18%
    19:00 +15°C° 0 mm 2 mps 749 mmHg 21%
    20:00 +15°C° 0 mm 2 mps 749 mmHg 22%
    21:00 +14°C° 0 mm 2 mps 749 mmHg 23%
    22:00 +13°C° 0 mm 2 mps 749 mmHg 24%
    23:00 +13°C° 0 mm 2 mps 749 mmHg 25%

    21 October, Sunday

    Time Temperature Precipitation Wind Pressure Humidity
    00:00 +12°C° 0 mm 2 mps 748 mmHg 26%
    01:00 +12°C° 0 mm 1 mps 748 mmHg 27%
    02:00 +11°C° 0 mm 1 mps 748 mmHg 27%
    03:00 +11°C° 0 mm 1 mps 748 mmHg 28%
    04:00 +11°C° 0 mm 1 mps 748 mmHg 28%
    05:00 +12°C° 0 mm 2 mps 748 mmHg 26%
    06:00 +13°C° 0 mm 2 mps 748 mmHg 24%
    07:00 +14°C° 0 mm 2 mps 749 mmHg 22%
    08:00 +16°C° 0 mm 2 mps 749 mmHg 19%
    09:00 +19°C° 0 mm 2 mps 749 mmHg 16%
    10:00 +23°C° 0 mm 2 mps 749 mmHg 14%
    11:00 +24°C° 0 mm 3 mps 749 mmHg 13%
    12:00 +25°C° 0 mm 3 mps 748 mmHg 12%
    13:00 +26°C° 0 mm 3 mps 748 mmHg 12%
    14:00 +26°C° 0 mm 2 mps 747 mmHg 12%
    15:00 +26°C° 0 mm 2 mps 747 mmHg 12%
    16:00 +26°C° 0 mm 2 mps 747 mmHg 12%
    17:00 +23°C° 0 mm 2 mps 747 mmHg 15%
    18:00 +20°C° 0 mm 2 mps 747 mmHg 17%
    19:00 +18°C° 0 mm 2 mps 747 mmHg 20%
    20:00 +17°C° 0 mm 2 mps 747 mmHg 21%
    21:00 +17°C° 0 mm 2 mps 747 mmHg 21%
    22:00 +17°C° 0 mm 3 mps 747 mmHg 22%
    23:00 +16°C° 0 mm 3 mps 747 mmHg 23%

    22 October, Monday

    Time Temperature Precipitation Wind Pressure Humidity
    00:00 +16°C° 0 mm 3 mps 746 mmHg 23%
    01:00 +16°C° 0 mm 3 mps 746 mmHg 24%
    02:00 +14°C° 0 mm 3 mps 746 mmHg 25%
    03:00 +14°C° 0 mm 3 mps 746 mmHg 25%
    04:00 +14°C° 0 mm 3 mps 746 mmHg 26%
    05:00 +14°C° 0 mm 3 mps 746 mmHg 26%
    06:00 +14°C° 0 mm 3 mps 746 mmHg 25%
    07:00 +16°C° 0 mm 3 mps 746 mmHg 25%
    08:00 +19°C° 0 mm 4 mps 746 mmHg 21%
    09:00 +22°C° 0 mm 4 mps 746 mmHg 18%
    10:00 +25°C° 0 mm 4 mps 746 mmHg 14%
    11:00 +27°C° 0 mm 4 mps 746 mmHg 13%
    12:00 +28°C° 0 mm 4 mps 746 mmHg 12%
    13:00 +29°C° 0 mm 3 mps 745 mmHg 10%
    14:00 +29°C° 0 mm 3 mps 745 mmHg 10%
    15:00 +28°C° 0 mm 3 mps 744 mmHg 10%
    16:00 +28°C° 0 mm 2 mps 744 mmHg 10%
    17:00 +26°C° 0 mm 3 mps 744 mmHg 12%
    18:00 +24°C° 0 mm 3 mps 744 mmHg 14%
    19:00 +21°C° 0 mm 3 mps 744 mmHg 16%
    20:00 +20°C° 0 mm 3 mps 744 mmHg 16%
    21:00 +19°C° 0 mm 3 mps 744 mmHg 17%
    22:00 +19°C° 0 mm 3 mps 744 mmHg 18%
    23:00 +18°C° 0 mm 3 mps 744 mmHg 20%

    23 October, Tuesday

    Time Temperature Precipitation Wind Pressure Humidity
    00:00 +17°C° 0 mm 3 mps 743 mmHg 21%
    01:00 +17°C° 0 mm 3 mps 743 mmHg 22%
    02:00 +17°C° 0 mm 3 mps 743 mmHg 22%
    03:00 +16°C° 0 mm 3 mps 743 mmHg 22%
    04:00 +16°C° 0 mm 3 mps 743 mmHg 22%
    05:00 +17°C° 0 mm 3 mps 744 mmHg 21%
    06:00 +17°C° 0 mm 3 mps 744 mmHg 20%
    07:00 +18°C° 0 mm 3 mps 744 mmHg 19%
    08:00 +20°C° 0 mm 3 mps 744 mmHg 17%
    09:00 +22°C° 0 mm 4 mps 744 mmHg 14%
    10:00 +25°C° 0 mm 4 mps 745 mmHg 12%
    11:00 +26°C° 0 mm 3 mps 745 mmHg 11%
    12:00 +27°C° 0 mm 2 mps 744 mmHg 10%
    13:00 +28°C° 0 mm 2 mps 744 mmHg 10%
    14:00 +27°C° 0 mm 2 mps 744 mmHg 10%
    15:00 +27°C° 0 mm 2 mps 744 mmHg 10%
    16:00 +26°C° 0 mm 2 mps 744 mmHg 11%
    17:00 +25°C° 0 mm 3 mps 744 mmHg 11%
    18:00 +24°C° 0 mm 3 mps 745 mmHg 12%
    19:00 +22°C° 0 mm 3 mps 745 mmHg 13%
    20:00 +22°C° 0 mm 3 mps 745 mmHg 14%
    21:00 +21°C° 0 mm 3 mps 745 mmHg 16%
    22:00 +21°C° 0 mm 3 mps 745 mmHg 17%
    23:00 +20°C° 0 mm 3 mps 745 mmHg 18%
    Show more